Weather History for KLBX - December, 2013

Change the Weather History Date:

Tuesday, December 24, 2013

  Actual Average Record
Temperature  
Mean Temperature 41 °F -  
Max Temperature 55 °F 61 °F 75 °F (2008)
Min Temperature 27 °F 41 °F 27 °F (2013)
Degree Days  
Heating Degree Days 24    
Moisture  
Dew Point 33 °F    
Average Humidity 78    
Maximum Humidity 97    
Minimum Humidity 47    
Precipitation  
Precipitation 0.00 in - - ()
Sea Level Pressure  
Sea Level Pressure 30.46 in    
Wind  
Wind Speed 5 mph (NE)    
Max Wind Speed 10 mph    
Max Gust Speed 16 mph    
Visibility 10 miles    
Events      
Averages and records for this station are not official NWS values.
T = Trace of Precipitation, MM = Missing Value Source: NWS Daily Summary

Daily Weather History Graph

Daily Weather History Graph

Search for Another Location

Airport or City:

Trip Planner

Search our weather history database for the weather conditions in past years. The results will help you decide how hot, cold, wet, or windy it might be!

Date:

Astronomy

Dec. 24, 2013 Rise Set
Actual Time 7:13 AM CST 5:30 PM CST
Civil Twilight 6:46 AM CST 5:56 PM CST
Nautical Twilight 6:17 AM CST 6:25 PM CST
Astronomical Twilight 5:48 AM CST 6:55 PM CST
Moon No Moon Rise 11:37 AM CST (12/24)
Length of Visible Light 11h 09m
Length of Day
10h 17m
Waning Gibbous, 58% of the Moon is Illuminated
Dec 24
Waning Gibbous
Dec 25
Last Quarter
Jan 1
New
Jan 7
First Quarter
Jan 15
Full

Hourly Weather History & Observations

Time (CST) Temp. Windchill Dew Point Humidity Pressure Visibility Wind Dir Wind Speed Gust Speed Precip Events Conditions
12:53 AM 33.1 °F 30.0 °F 30.9 °F 92% 30.52 in 10.0 mi North 3.5 mph - N/A   Clear
1:53 AM 30.0 °F - 28.0 °F 92% 30.52 in 9.0 mi Calm Calm - N/A   Clear
2:53 AM 30.0 °F 25.2 °F 28.0 °F 92% 30.52 in 10.0 mi North 4.6 mph - N/A   Clear
3:53 AM 30.9 °F 25.2 °F 28.0 °F 89% 30.52 in 10.0 mi North 5.8 mph - N/A   Clear
4:53 AM 30.9 °F 26.2 °F 28.9 °F 92% 30.51 in 9.0 mi North 4.6 mph - N/A   Clear
5:53 AM 28.0 °F 22.8 °F 26.1 °F 92% 30.51 in 9.0 mi NNE 4.6 mph - N/A   Clear
6:53 AM 27.0 °F 21.6 °F 26.1 °F 96% 30.52 in 7.0 mi NNE 4.6 mph - N/A   Clear
7:53 AM 30.0 °F 24.1 °F 28.9 °F 96% 30.54 in 8.0 mi NNE 5.8 mph - N/A   Clear
8:53 AM 41.0 °F 37.1 °F 34.0 °F 76% 30.55 in 10.0 mi ENE 5.8 mph - N/A   Clear
9:53 AM 46.0 °F 41.4 °F 36.0 °F 68% 30.55 in 10.0 mi ENE 9.2 mph - N/A   Clear
10:53 AM 50.0 °F - 33.1 °F 52% 30.53 in 10.0 mi ENE 8.1 mph - N/A   Clear
11:53 AM 53.1 °F - 34.0 °F 48% 30.49 in 10.0 mi ENE 9.2 mph - N/A   Clear
12:53 PM 54.0 °F - 35.1 °F 49% 30.47 in 10.0 mi East 10.4 mph 16.1 mph N/A   Clear
1:53 PM 55.0 °F - 35.1 °F 47% 30.43 in 10.0 mi East 8.1 mph - N/A   Clear
2:53 PM 55.0 °F - 35.1 °F 47% 30.42 in 10.0 mi Variable 5.8 mph - N/A   Clear
3:53 PM 53.1 °F - 36.0 °F 52% 30.40 in 10.0 mi East 9.2 mph - N/A   Clear
4:53 PM 50.0 °F - 35.1 °F 57% 30.41 in 10.0 mi ESE 6.9 mph - N/A   Clear
5:53 PM 46.0 °F 44.8 °F 37.0 °F 71% 30.40 in 10.0 mi East 3.5 mph - N/A   Clear
6:53 PM 39.0 °F - 35.1 °F 86% 30.40 in 10.0 mi Calm Calm - N/A   Clear
7:53 PM 36.0 °F 33.3 °F 34.0 °F 93% 30.38 in 10.0 mi North 3.5 mph - N/A   Clear
8:53 PM 37.0 °F - 35.1 °F 93% 30.36 in 10.0 mi Calm Calm - N/A   Clear
9:53 PM 35.1 °F - 33.1 °F 92% 30.35 in 10.0 mi Calm Calm - N/A   Clear
10:53 PM 34.0 °F 31.0 °F 33.1 °F 96% 30.33 in 9.0 mi NE 3.5 mph - N/A   Clear
11:53 PM 37.9 °F 35.5 °F 37.0 °F 97% 30.32 in 9.0 mi NNE 3.5 mph - N/A   Clear